AFR343 CYUL-LFPG

Flight info

Callsign AFR343
Flight time N/A
Altitude 39000
Route ANTEG DCT OBRON DCT MOBUB DCT EBMOS DCT CEFOU N697A NEEKO/M084F390 DCT 54N050W 55N040W 55N030W 54N020W DCT MALOT/N0478F390 DCT GISTI/N0484F410 DCT LESLU DCT ANNET UM25 INGOR/N0444F280 UM25 LUKIP
Aircraft B772/H-SDE2E3FGHIJ5LORVWXY/LB1D1

Departure

Time 2026-05-06 12:12
Airport Montreal / Pierre Elliott Trudeau International Airport (CYUL)

Arrival

Time N/A
Airport Charles de Gaulle International Airport (LFPG)
Time Latitude Longitude Altitude Speed Heading
2026-05-06 11:34 45.45974 -73.75732 133 ft 0 kts 180°
2026-05-06 11:56 45.45981 -73.75732 134 ft 2 kts 180°
2026-05-06 11:56 45.45996 -73.75732 134 ft 2 kts 180°
2026-05-06 11:56 45.46011 -73.75732 134 ft 2 kts 180°
2026-05-06 11:56 45.46025 -73.75732 134 ft 2 kts 180°
2026-05-06 11:57 45.46040 -73.75735 133 ft 2 kts 151°
2026-05-06 11:57 45.46051 -73.75748 134 ft 2 kts 123°
2026-05-06 11:57 45.46057 -73.75768 134 ft 2 kts 96°
2026-05-06 11:57 45.46057 -73.75788 134 ft 1 kts 84°
2026-05-06 11:58 45.46056 -73.75792 134 ft 0 kts 84°
2026-05-06 12:01 45.46057 -73.75787 133 ft 1 kts 84°
2026-05-06 12:01 45.46059 -73.75763 133 ft 2 kts 83°
2026-05-06 12:01 45.46081 -73.75725 133 ft 7 kts 17°
2026-05-06 12:02 45.46131 -73.75665 133 ft 12 kts 80°
2026-05-06 12:02 45.46136 -73.75534 133 ft 15 kts 86°
2026-05-06 12:02 45.46140 -73.75363 133 ft 19 kts 88°
2026-05-06 12:02 45.46147 -73.75161 133 ft 20 kts 89°
2026-05-06 12:03 45.46155 -73.74954 133 ft 21 kts 90°
2026-05-06 12:03 45.46160 -73.74742 133 ft 14 kts 88°
2026-05-06 12:03 45.46155 -73.74590 133 ft 15 kts 117°
2026-05-06 12:03 45.46129 -73.74451 134 ft 14 kts 87°
2026-05-06 12:04 45.46135 -73.74301 134 ft 16 kts 86°
2026-05-06 12:04 45.46141 -73.74135 134 ft 17 kts 87°
2026-05-06 12:04 45.46196 -73.73981 134 ft 18 kts 44°
2026-05-06 12:04 45.46297 -73.73851 134 ft 20 kts 43°
2026-05-06 12:05 45.46402 -73.73713 133 ft 21 kts 42°
2026-05-06 12:05 45.46512 -73.73568 134 ft 22 kts 42°
2026-05-06 12:05 45.46630 -73.73414 134 ft 23 kts 42°
2026-05-06 12:05 45.46753 -73.73254 133 ft 24 kts 42°
2026-05-06 12:06 45.46860 -73.73116 134 ft 19 kts 42°
2026-05-06 12:06 45.46965 -73.72978 133 ft 20 kts 42°
2026-05-06 12:06 45.47074 -73.72840 133 ft 21 kts 41°
2026-05-06 12:06 45.47176 -73.72696 133 ft 20 kts 44°
2026-05-06 12:07 45.47285 -73.72557 133 ft 21 kts 41°
2026-05-06 12:07 45.47401 -73.72411 134 ft 22 kts 41°
2026-05-06 12:07 45.47504 -73.72282 133 ft 18 kts 43°
2026-05-06 12:07 45.47580 -73.72180 133 ft 11 kts 43°
2026-05-06 12:08 45.47627 -73.72118 133 ft 8 kts 43°
2026-05-06 12:08 45.47669 -73.72061 133 ft 8 kts 46°
2026-05-06 12:08 45.47729 -73.71976 133 ft 13 kts 44°
2026-05-06 12:08 45.47804 -73.71874 134 ft 15 kts 36°
2026-05-06 12:09 45.47842 -73.71754 134 ft 15 kts 121°
2026-05-06 12:09 45.47749 -73.71674 133 ft 16 kts 155°
2026-05-06 12:09 45.47640 -73.71683 133 ft 17 kts 222°
2026-05-06 12:09 45.47628 -73.71698 134 ft 0 kts 217°
2026-05-06 12:10 45.47621 -73.71707 134 ft 2 kts 221°
2026-05-06 12:10 45.47600 -73.71735 133 ft 5 kts 223°
2026-05-06 12:10 45.47599 -73.71736 133 ft 0 kts 223°
2026-05-06 12:11 45.47556 -73.71794 133 ft 29 kts 223°
2026-05-06 12:12 45.47214 -73.72243 134 ft 102 kts 223°
2026-05-06 12:12 45.46526 -73.73140 156 ft 158 kts 222°
2026-05-06 12:12 45.45705 -73.74197 639 ft 165 kts 226°
2026-05-06 12:12 45.44892 -73.75374 1368 ft 169 kts 226°
2026-05-06 12:13 45.44020 -73.76590 1763 ft 183 kts 225°
2026-05-06 12:13 45.43051 -73.77898 2104 ft 201 kts 225°
2026-05-06 12:13 45.41985 -73.79338 2528 ft 217 kts 225°
2026-05-06 12:13 45.40853 -73.80868 2945 ft 234 kts 226°
2026-05-06 12:14 45.39903 -73.82805 3281 ft 248 kts 253°
2026-05-06 12:14 45.39767 -73.85223 3858 ft 252 kts 282°
2026-05-06 12:14 45.40493 -73.87458 4628 ft 252 kts 303°
2026-05-06 12:14 45.41560 -73.89473 5317 ft 257 kts 306°
2026-05-06 12:15 45.42668 -73.91458 5996 ft 261 kts 306°
2026-05-06 12:15 45.43806 -73.93462 6735 ft 262 kts 306°
2026-05-06 12:15 45.45174 -73.95210 7334 ft 274 kts 327°
2026-05-06 12:15 45.47044 -73.95970 7859 ft 291 kts 354°
2026-05-06 12:16 45.49069 -73.95403 8425 ft 306 kts 22°
2026-05-06 12:16 45.50796 -73.93571 8945 ft 317 kts 42°
2026-05-06 12:16 45.52355 -73.91330 9552 ft 322 kts 44°
2026-05-06 12:16 45.53929 -73.89013 10007 ft 332 kts 44°
2026-05-06 12:17 45.55561 -73.86604 10332 ft 347 kts 45°
2026-05-06 12:17 45.57282 -73.84058 10637 ft 363 kts 44°
2026-05-06 12:17 45.59058 -73.81429 10893 ft 380 kts 45°
2026-05-06 12:17 45.60942 -73.78639 11160 ft 397 kts 44°
2026-05-06 12:18 45.62904 -73.75729 11359 ft 415 kts 45°
2026-05-06 12:18 45.64945 -73.72694 11806 ft 425 kts 44°
2026-05-06 12:18 45.66981 -73.69664 12460 ft 430 kts 44°
2026-05-06 12:18 45.69042 -73.66592 13152 ft 433 kts 44°
2026-05-06 12:19 45.71151 -73.63445 13840 ft 437 kts 45°
2026-05-06 12:19 45.73264 -73.60287 14544 ft 442 kts 45°
2026-05-06 12:19 45.75373 -73.57130 15151 ft 448 kts 45°
2026-05-06 12:19 45.77535 -73.53889 15823 ft 452 kts 45°
2026-05-06 12:20 45.79725 -73.50603 16539 ft 455 kts 44°
2026-05-06 12:20 45.81923 -73.47299 17144 ft 461 kts 44°
2026-05-06 12:20 45.84136 -73.43967 17773 ft 465 kts 45°
2026-05-06 12:20 45.86384 -73.40570 18339 ft 471 kts 44°
2026-05-06 12:21 45.88638 -73.37135 18968 ft 476 kts 45°
2026-05-06 12:21 45.90892 -73.33691 19570 ft 480 kts 46°
2026-05-06 12:21 45.93200 -73.30157 20088 ft 486 kts 46°
2026-05-06 12:21 45.95532 -73.26582 20582 ft 492 kts 45°
2026-05-06 12:22 45.97878 -73.22980 21178 ft 496 kts 46°
2026-05-06 12:22 46.00227 -73.19370 21729 ft 499 kts 46°
2026-05-06 12:22 46.02599 -73.15717 22199 ft 505 kts 46°
2026-05-06 12:22 46.04996 -73.12022 22748 ft 509 kts 46°
2026-05-06 12:23 46.07422 -73.08275 23290 ft 512 kts 45°
2026-05-06 12:23 46.09869 -73.04491 23827 ft 517 kts 46°
2026-05-06 12:23 46.12311 -73.00710 24217 ft 523 kts 46°
2026-05-06 12:23 46.14806 -72.96841 24647 ft 529 kts 46°
2026-05-06 12:24 46.17216 -72.92837 25145 ft 534 kts 52°
2026-05-06 12:24 46.19279 -72.88400 25662 ft 537 kts 58°
2026-05-06 12:24 46.21214 -72.83793 26163 ft 541 kts 59°
2026-05-06 12:24 46.23166 -72.79094 26580 ft 546 kts 59°
2026-05-06 12:25 46.25107 -72.74410 27018 ft 551 kts 59°
2026-05-06 12:25 46.27071 -72.69665 27435 ft 556 kts 58°
2026-05-06 12:25 46.29048 -72.64884 27938 ft 559 kts 59°
2026-05-06 12:25 46.31035 -72.60069 28467 ft 560 kts 59°
2026-05-06 12:26 46.33030 -72.55228 28916 ft 564 kts 59°
2026-05-06 12:26 46.35046 -72.50328 29260 ft 569 kts 59°
2026-05-06 12:26 46.37062 -72.45421 29610 ft 574 kts 59°
2026-05-06 12:26 46.39102 -72.40447 29971 ft 578 kts 58°
2026-05-06 12:27 46.41137 -72.35474 30485 ft 579 kts 58°
2026-05-06 12:27 46.43195 -72.30437 31093 ft 579 kts 59°
2026-05-06 12:27 46.45255 -72.25386 31587 ft 580 kts 59°
2026-05-06 12:27 46.47282 -72.20410 32098 ft 580 kts 59°
2026-05-06 12:28 46.49311 -72.15415 32628 ft 579 kts 59°
2026-05-06 12:28 46.51369 -72.10342 33098 ft 580 kts 58°
2026-05-06 12:28 46.53403 -72.05319 33507 ft 582 kts 59°
2026-05-06 12:28 46.55434 -72.00297 33959 ft 583 kts 58°
2026-05-06 12:29 46.57526 -71.95238 34440 ft 582 kts 58°
2026-05-06 12:29 46.59597 -71.90255 34840 ft 583 kts 58°
2026-05-06 12:29 46.61705 -71.85175 35270 ft 580 kts 57°
2026-05-06 12:29 46.63762 -71.80205 35847 ft 573 kts 57°
2026-05-06 12:30 46.65780 -71.75319 36365 ft 566 kts 57°
2026-05-06 12:30 46.67795 -71.70433 36783 ft 563 kts 57°
2026-05-06 12:30 46.69783 -71.65602 37066 ft 564 kts 57°
2026-05-06 12:30 46.71795 -71.60702 37361 ft 564 kts 57°
2026-05-06 12:31 46.73791 -71.55833 37757 ft 561 kts 56°
2026-05-06 12:31 46.75777 -71.50977 38202 ft 556 kts 56°
2026-05-06 12:31 46.77738 -71.46174 38592 ft 552 kts 56°
2026-05-06 12:31 46.79699 -71.41363 38858 ft 551 kts 56°
2026-05-06 12:32 46.83613 -71.31737 38869 ft 555 kts 57°
2026-05-06 12:32 46.87529 -71.22068 38870 ft 553 kts 57°
2026-05-06 12:33 46.91428 -71.12409 38859 ft 555 kts 57°
2026-05-06 12:33 46.95336 -71.02692 38864 ft 555 kts 57°
2026-05-06 12:34 46.99210 -70.93024 38864 ft 552 kts 57°
2026-05-06 12:34 47.03094 -70.83298 38872 ft 554 kts 57°
2026-05-06 12:35 47.06955 -70.73594 38869 ft 553 kts 57°
2026-05-06 12:35 47.10802 -70.63891 38845 ft 553 kts 57°
2026-05-06 12:36 47.14645 -70.54160 38853 ft 550 kts 57°
2026-05-06 12:36 47.18478 -70.44424 38837 ft 554 kts 57°
2026-05-06 12:37 47.22290 -70.34705 38826 ft 550 kts 58°
2026-05-06 12:37 47.26099 -70.24959 38829 ft 552 kts 58°
2026-05-06 12:38 47.29939 -70.15096 38842 ft 554 kts 58°
2026-05-06 12:38 47.33725 -70.05339 38846 ft 551 kts 58°
2026-05-06 12:39 47.37505 -69.95562 38838 ft 554 kts 58°
2026-05-06 12:39 47.41311 -69.85679 38840 ft 551 kts 58°
2026-05-06 12:40 47.45070 -69.75882 38825 ft 551 kts 58°
2026-05-06 12:40 47.48821 -69.66071 38843 ft 550 kts 58°
2026-05-06 12:41 47.52567 -69.56239 38850 ft 552 kts 58°
2026-05-06 12:41 47.56305 -69.46389 38828 ft 550 kts 58°
2026-05-06 12:42 47.60031 -69.36538 38839 ft 549 kts 58°
2026-05-06 12:42 47.63723 -69.26738 38804 ft 548 kts 59°
2026-05-06 12:43 47.67432 -69.16858 38850 ft 551 kts 59°
2026-05-06 12:43 47.71152 -69.06911 38808 ft 548 kts 59°
2026-05-06 12:44 47.74855 -68.97089 38826 ft 549 kts 55°
2026-05-06 12:44 47.79092 -68.87718 38828 ft 550 kts 53°
2026-05-06 12:45 47.83376 -68.78310 38819 ft 548 kts 53°
2026-05-06 12:46 47.89734 -68.64176 38842 ft 548 kts 53°
2026-05-06 12:46 47.93929 -68.54769 38841 ft 550 kts 54°
2026-05-06 12:47 47.98160 -68.45232 38837 ft 549 kts 54°
2026-05-06 12:47 48.02330 -68.35790 38863 ft 546 kts 54°
2026-05-06 12:48 48.06488 -68.26338 38816 ft 547 kts 55°
2026-05-06 12:48 48.10669 -68.16798 38823 ft 547 kts 55°
2026-05-06 12:49 48.14826 -68.07274 38807 ft 549 kts 54°
2026-05-06 12:49 48.18962 -67.97766 38824 ft 548 kts 54°
2026-05-06 12:50 48.23112 -67.88191 38786 ft 548 kts 54°
2026-05-06 12:50 48.27242 -67.78631 38804 ft 551 kts 54°
2026-05-06 12:51 48.31394 -67.68983 38802 ft 549 kts 54°
2026-05-06 12:51 48.35503 -67.59402 38832 ft 551 kts 55°
2026-05-06 12:52 48.39625 -67.49754 38840 ft 548 kts 54°
2026-05-06 12:52 48.43744 -67.40082 38825 ft 550 kts 54°
2026-05-06 12:53 48.47838 -67.30431 38794 ft 548 kts 56°
2026-05-06 12:53 48.51915 -67.20787 38814 ft 549 kts 55°
2026-05-06 12:54 48.56005 -67.11076 38807 ft 548 kts 56°
2026-05-06 12:54 48.60080 -67.01368 38815 ft 551 kts 56°
2026-05-06 12:55 48.64135 -66.91670 38817 ft 548 kts 56°
2026-05-06 12:55 48.68205 -66.81901 38815 ft 548 kts 56°
2026-05-06 12:56 48.72224 -66.72220 38822 ft 547 kts 56°
2026-05-06 12:56 48.76275 -66.62428 38813 ft 546 kts 56°
2026-05-06 12:57 48.80288 -66.52692 38839 ft 549 kts 56°
2026-05-06 12:57 48.84323 -66.42864 38837 ft 549 kts 56°
2026-05-06 12:58 48.88346 -66.33032 38814 ft 549 kts 57°
2026-05-06 12:58 48.92343 -66.23226 38829 ft 549 kts 57°
2026-05-06 12:59 48.96321 -66.13429 38827 ft 547 kts 57°
2026-05-06 12:59 49.00322 -66.03543 38800 ft 550 kts 57°
2026-05-06 13:00 49.04293 -65.93692 38793 ft 545 kts 57°
2026-05-06 13:00 49.08237 -65.83872 38835 ft 547 kts 57°
2026-05-06 13:01 49.12204 -65.73958 38835 ft 546 kts 57°
2026-05-06 13:01 49.16133 -65.64104 38828 ft 547 kts 57°
2026-05-06 13:02 49.20047 -65.54249 38821 ft 546 kts 58°
2026-05-06 13:02 49.24000 -65.44257 38833 ft 547 kts 58°
2026-05-06 13:03 49.27873 -65.34433 38858 ft 544 kts 59°
2026-05-06 13:03 49.31779 -65.24487 38845 ft 544 kts 59°
2026-05-06 13:04 49.35647 -65.14602 38812 ft 544 kts 59°
2026-05-06 13:04 49.39499 -65.04720 38835 ft 543 kts 59°
2026-05-06 13:05 49.43364 -64.94765 38825 ft 544 kts 59°
2026-05-06 13:05 49.47227 -64.84782 38805 ft 544 kts 59°
2026-05-06 13:06 49.51059 -64.74837 38835 ft 542 kts 59°
2026-05-06 13:06 49.54888 -64.64864 38830 ft 544 kts 59°
2026-05-06 13:07 49.58708 -64.54876 38816 ft 544 kts 59°
2026-05-06 13:07 49.62518 -64.44876 38836 ft 544 kts 59°
2026-05-06 13:08 49.66327 -64.34843 38847 ft 545 kts 59°
2026-05-06 13:08 49.70121 -64.24807 38832 ft 545 kts 60°
2026-05-06 13:09 49.73284 -64.16412 38857 ft 543 kts 60°
2026-05-06 13:10 49.81515 -63.94439 38843 ft 543 kts 60°
2026-05-06 13:10 49.85252 -63.84398 38859 ft 541 kts 60°
2026-05-06 13:11 49.89023 -63.74229 38844 ft 546 kts 60°
2026-05-06 13:11 49.92767 -63.64093 38836 ft 543 kts 60°
2026-05-06 13:12 49.96524 -63.53883 38817 ft 547 kts 60°
2026-05-06 13:12 50.00252 -63.43711 38871 ft 546 kts 60°
2026-05-06 13:13 50.04005 -63.33430 38864 ft 548 kts 62°
2026-05-06 13:13 50.07716 -63.23223 38819 ft 546 kts 61°
2026-05-06 13:14 50.11445 -63.12926 38836 ft 548 kts 61°
2026-05-06 13:14 50.15181 -63.02569 38843 ft 546 kts 62°
2026-05-06 13:15 50.18876 -62.92284 38845 ft 549 kts 62°
2026-05-06 13:15 50.22575 -62.81947 38829 ft 547 kts 62°
2026-05-06 13:16 50.26260 -62.71604 38808 ft 548 kts 61°
2026-05-06 13:16 50.29948 -62.61216 38892 ft 550 kts 62°
2026-05-06 13:17 50.33627 -62.50807 38846 ft 549 kts 62°
2026-05-06 13:17 50.37320 -62.40316 38858 ft 550 kts 61°
2026-05-06 13:18 50.40992 -62.29843 38828 ft 550 kts 62°
2026-05-06 13:18 50.44654 -62.19356 38829 ft 550 kts 63°
2026-05-06 13:19 50.48294 -62.08886 38829 ft 550 kts 63°
2026-05-06 13:19 50.51951 -61.98327 38829 ft 550 kts 63°
2026-05-06 13:20 50.55577 -61.87811 38832 ft 551 kts 62°
2026-05-06 13:20 50.59216 -61.77215 38843 ft 551 kts 63°
2026-05-06 13:21 50.62833 -61.66637 38835 ft 552 kts 63°
2026-05-06 13:21 50.66435 -61.56062 38832 ft 549 kts 63°
2026-05-06 13:22 50.70031 -61.45457 38829 ft 551 kts 63°
2026-05-06 13:22 50.73626 -61.34812 38842 ft 551 kts 63°
2026-05-06 13:23 50.77221 -61.24121 38857 ft 552 kts 63°
2026-05-06 13:23 50.80807 -61.13412 38823 ft 551 kts 63°
2026-05-06 13:24 50.84344 -61.02805 38809 ft 552 kts 63°
2026-05-06 13:24 50.87928 -60.92007 38828 ft 554 kts 63°
2026-05-06 13:25 50.91468 -60.81301 38845 ft 551 kts 63°
2026-05-06 13:25 50.95025 -60.70493 38782 ft 553 kts 63°
2026-05-06 13:25 50.96767 -60.65186 38893 ft 550 kts 63°
2026-05-06 13:26 50.98521 -60.59826 38817 ft 549 kts 63°
2026-05-06 13:26 51.02030 -60.49075 38857 ft 552 kts 63°
2026-05-06 13:27 51.05548 -60.38246 38821 ft 549 kts 63°
2026-05-06 13:27 51.09033 -60.27473 38843 ft 548 kts 64°
2026-05-06 13:28 51.12513 -60.16668 38832 ft 548 kts 64°
2026-05-06 13:28 51.15954 -60.05938 38828 ft 550 kts 64°
2026-05-06 13:29 51.19411 -59.95112 38834 ft 547 kts 63°
2026-05-06 13:29 51.22852 -59.84287 38803 ft 551 kts 64°
2026-05-06 13:30 51.26292 -59.73421 38779 ft 548 kts 63°
2026-05-06 13:30 51.29690 -59.62638 38824 ft 549 kts 64°
2026-05-06 13:31 51.33109 -59.51740 38792 ft 548 kts 63°
2026-05-06 13:31 51.36489 -59.40916 38842 ft 548 kts 63°
2026-05-06 13:32 51.39879 -59.30016 38802 ft 547 kts 64°
2026-05-06 13:32 51.43260 -59.19091 38842 ft 548 kts 64°
2026-05-06 13:33 51.46605 -59.08239 38850 ft 545 kts 64°
2026-05-06 13:33 51.49937 -58.97378 38829 ft 547 kts 64°
2026-05-06 13:34 51.53287 -58.86411 38841 ft 547 kts 64°
2026-05-06 13:34 51.56595 -58.75530 38818 ft 546 kts 64°
2026-05-06 13:35 51.59898 -58.64618 38803 ft 544 kts 64°
2026-05-06 13:35 51.63173 -58.53749 38837 ft 545 kts 64°
2026-05-06 13:36 51.66463 -58.42779 38820 ft 541 kts 64°
2026-05-06 13:36 51.69738 -58.31812 38818 ft 544 kts 65°
2026-05-06 13:37 51.72983 -58.20894 38831 ft 542 kts 65°
2026-05-06 13:37 51.76227 -58.09930 38830 ft 542 kts 65°
2026-05-06 13:38 51.79436 -57.99036 38831 ft 541 kts 65°
2026-05-06 13:38 51.82665 -57.88020 38821 ft 541 kts 65°
2026-05-06 13:39 51.85835 -57.77159 38818 ft 540 kts 65°
2026-05-06 13:39 51.89025 -57.66178 38800 ft 541 kts 65°
2026-05-06 13:40 51.92206 -57.55177 38860 ft 540 kts 65°
2026-05-06 13:40 51.95369 -57.44190 38863 ft 540 kts 65°
2026-05-06 13:41 51.98526 -57.33168 38829 ft 539 kts 66°
2026-05-06 13:41 52.01646 -57.22225 38834 ft 538 kts 66°
2026-05-06 13:42 52.04774 -57.11204 38850 ft 537 kts 66°
2026-05-06 13:42 52.07872 -57.00237 38799 ft 537 kts 66°
2026-05-06 13:43 52.10974 -56.89208 38824 ft 539 kts 66°
2026-05-06 13:43 52.14068 -56.78151 38824 ft 537 kts 66°
2026-05-06 13:44 52.17151 -56.67082 38818 ft 537 kts 66°
2026-05-06 13:44 52.20224 -56.55997 38818 ft 540 kts 66°
2026-05-06 13:45 52.23277 -56.44929 38833 ft 538 kts 66°
2026-05-06 13:45 52.27851 -56.28252 38823 ft 540 kts 66°
2026-05-06 13:46 52.30884 -56.17125 38831 ft 538 kts 66°
2026-05-06 13:46 52.33915 -56.05953 38844 ft 539 kts 66°
2026-05-06 13:47 52.36935 -55.94766 38838 ft 540 kts 67°
2026-05-06 13:47 52.39980 -55.83568 38838 ft 540 kts 64°
2026-05-06 13:48 52.43315 -55.72654 38843 ft 540 kts 63°
2026-05-06 13:48 52.46690 -55.61676 38845 ft 539 kts 63°
2026-05-06 13:49 52.50035 -55.50750 38829 ft 539 kts 63°
2026-05-06 13:49 52.53371 -55.39810 38838 ft 538 kts 62°
2026-05-06 13:50 52.56692 -55.28870 38843 ft 537 kts 64°
2026-05-06 13:50 52.59997 -55.17930 38837 ft 536 kts 63°
2026-05-06 13:51 52.63300 -55.06949 38838 ft 538 kts 63°
2026-05-06 13:51 52.66597 -54.95941 38843 ft 536 kts 63°
2026-05-06 13:52 52.69863 -54.84981 38852 ft 536 kts 63°
2026-05-06 13:52 52.73120 -54.74005 38861 ft 537 kts 63°
2026-05-06 13:53 52.76390 -54.62933 38842 ft 537 kts 63°
2026-05-06 13:53 52.79633 -54.51900 38860 ft 535 kts 63°
2026-05-06 13:54 52.82863 -54.40863 38862 ft 536 kts 63°
2026-05-06 13:54 52.86079 -54.29819 38850 ft 536 kts 63°
2026-05-06 13:55 52.89292 -54.18733 38855 ft 535 kts 64°
2026-05-06 13:55 52.92475 -54.07700 38849 ft 534 kts 63°
2026-05-06 13:56 52.95660 -53.96612 38849 ft 537 kts 63°
2026-05-06 13:56 52.98841 -53.85483 38855 ft 533 kts 63°
2026-05-06 13:57 53.01981 -53.74444 38850 ft 533 kts 63°
2026-05-06 13:57 53.05124 -53.63344 38864 ft 533 kts 63°
2026-05-06 13:58 53.08257 -53.52226 38858 ft 533 kts 63°
2026-05-06 13:58 53.11358 -53.41166 38873 ft 530 kts 63°
2026-05-06 13:59 53.14458 -53.30062 38865 ft 532 kts 64°
2026-05-06 13:59 53.17540 -53.18965 38871 ft 530 kts 64°
2026-05-06 14:00 53.20622 -53.07820 38867 ft 528 kts 64°
2026-05-06 14:00 53.23680 -52.96701 38871 ft 530 kts 64°
2026-05-06 14:01 53.26711 -52.85635 38880 ft 528 kts 64°
2026-05-06 14:01 53.29745 -52.74497 38890 ft 528 kts 64°
2026-05-06 14:02 53.32758 -52.63387 38879 ft 527 kts 64°
2026-05-06 14:02 53.35754 -52.52286 38903 ft 524 kts 64°
2026-05-06 14:03 53.38728 -52.41213 38898 ft 526 kts 64°
2026-05-06 14:03 53.41694 -52.30116 38889 ft 523 kts 64°
2026-05-06 14:04 53.44659 -52.18969 38899 ft 525 kts 64°
2026-05-06 14:04 53.47596 -52.07869 38909 ft 523 kts 64°
2026-05-06 14:05 53.50529 -51.96736 38922 ft 524 kts 64°
2026-05-06 14:05 53.53453 -51.85578 38914 ft 521 kts 64°
2026-05-06 14:06 53.56345 -51.74487 38909 ft 522 kts 64°
2026-05-06 14:06 53.59241 -51.63330 38917 ft 521 kts 64°
2026-05-06 14:07 53.62120 -51.52178 38921 ft 523 kts 64°
2026-05-06 14:07 53.64979 -51.41050 38928 ft 519 kts 64°
2026-05-06 14:08 53.67829 -51.29905 38913 ft 520 kts 65°
2026-05-06 14:08 53.70672 -51.18730 38929 ft 522 kts 65°
2026-05-06 14:09 53.73488 -51.07605 38929 ft 519 kts 64°
2026-05-06 14:09 53.76309 -50.96404 38924 ft 520 kts 64°
2026-05-06 14:10 53.79116 -50.85204 38927 ft 521 kts 64°
2026-05-06 14:10 53.81907 -50.74009 38925 ft 519 kts 64°
2026-05-06 14:11 53.84695 -50.62771 38942 ft 519 kts 64°
2026-05-06 14:11 53.87469 -50.51530 38950 ft 518 kts 64°
2026-05-06 14:12 53.90217 -50.40338 38936 ft 519 kts 64°
2026-05-06 14:12 53.92980 -50.29029 38937 ft 517 kts 65°
2026-05-06 14:13 53.95703 -50.17822 38954 ft 518 kts 64°
2026-05-06 14:13 53.98417 -50.06598 38952 ft 517 kts 65°
2026-05-06 14:14 54.00627 -49.94988 38965 ft 521 kts 73°
2026-05-06 14:14 54.02381 -49.83107 38975 ft 519 kts 73°
2026-05-06 14:15 54.04091 -49.71277 38970 ft 520 kts 73°
2026-05-06 14:15 54.05786 -49.59380 38988 ft 516 kts 74°
2026-05-06 14:16 54.07451 -49.47564 38984 ft 518 kts 74°
2026-05-06 14:16 54.09112 -49.35657 39001 ft 516 kts 74°
2026-05-06 14:17 54.10754 -49.23784 38988 ft 515 kts 75°
2026-05-06 14:17 54.12378 -49.11943 38991 ft 518 kts 75°
2026-05-06 14:18 54.13994 -49.00057 39005 ft 516 kts 75°
2026-05-06 14:18 54.15583 -48.88273 39054 ft 516 kts 75°
2026-05-06 14:19 54.17174 -48.76377 39030 ft 514 kts 75°
2026-05-06 14:19 54.18747 -48.64519 39049 ft 515 kts 75°
2026-05-06 14:20 54.20306 -48.52674 39038 ft 512 kts 75°
2026-05-06 14:20 54.21854 -48.40813 39060 ft 513 kts 75°
2026-05-06 14:21 54.23389 -48.28953 39057 ft 514 kts 76°
2026-05-06 14:21 54.24907 -48.17119 39046 ft 513 kts 76°
2026-05-06 14:22 54.26416 -48.05261 39040 ft 513 kts 76°
2026-05-06 14:22 54.27918 -47.93366 39021 ft 514 kts 76°
2026-05-06 14:23 54.29404 -47.81485 39033 ft 510 kts 76°
2026-05-06 14:23 54.30869 -47.69673 39026 ft 512 kts 75°
2026-05-06 14:24 54.32323 -47.57852 39037 ft 510 kts 75°
2026-05-06 14:24 54.33770 -47.45980 39037 ft 512 kts 75°
2026-05-06 14:25 54.35207 -47.34090 39038 ft 509 kts 76°
2026-05-06 14:25 54.36631 -47.22207 39045 ft 512 kts 76°
2026-05-06 14:26 54.38035 -47.10377 39058 ft 512 kts 76°
2026-05-06 14:26 54.39438 -46.98451 39041 ft 511 kts 76°
2026-05-06 14:27 54.40820 -46.86594 39062 ft 508 kts 76°
2026-05-06 14:27 54.42186 -46.74775 39078 ft 508 kts 76°
2026-05-06 14:28 54.43549 -46.62872 39077 ft 509 kts 76°
2026-05-06 14:28 54.44888 -46.51064 39079 ft 507 kts 76°
2026-05-06 14:29 54.46223 -46.39186 39088 ft 508 kts 76°
2026-05-06 14:29 54.47546 -46.27302 39082 ft 507 kts 77°
2026-05-06 14:30 54.48857 -46.15418 39080 ft 507 kts 77°
2026-05-06 14:30 54.50153 -46.03555 39123 ft 507 kts 77°
2026-05-06 14:31 54.51426 -45.91779 39092 ft 503 kts 77°
2026-05-06 14:31 54.52693 -45.79957 39109 ft 506 kts 76°
2026-05-06 14:32 54.53950 -45.68107 39109 ft 504 kts 76°
2026-05-06 14:32 54.55196 -45.56242 39097 ft 504 kts 77°
2026-05-06 14:33 54.56426 -45.44420 39104 ft 503 kts 76°
2026-05-06 14:33 54.57637 -45.32664 39093 ft 501 kts 77°
2026-05-06 14:34 54.58841 -45.20850 39088 ft 502 kts 77°
2026-05-06 14:34 54.60029 -45.09081 39090 ft 501 kts 77°
2026-05-06 14:35 54.61212 -44.97239 39078 ft 500 kts 77°
2026-05-06 14:35 54.62374 -44.85479 39090 ft 501 kts 77°
2026-05-06 14:36 54.63524 -44.73734 39087 ft 500 kts 77°
2026-05-06 14:36 54.64663 -44.61956 39082 ft 499 kts 77°
2026-05-06 14:37 54.65791 -44.50186 39092 ft 498 kts 77°
2026-05-06 14:37 54.66915 -44.38325 39099 ft 500 kts 77°
2026-05-06 14:38 54.68015 -44.26593 39093 ft 498 kts 78°
2026-05-06 14:38 54.69105 -44.14829 39098 ft 497 kts 78°
2026-05-06 14:39 54.70189 -44.03016 39105 ft 498 kts 78°
2026-05-06 14:39 54.71254 -43.91269 39108 ft 500 kts 78°
2026-05-06 14:40 54.72315 -43.79432 39108 ft 497 kts 78°
2026-05-06 14:40 54.73360 -43.67639 39103 ft 498 kts 78°
2026-05-06 14:41 54.74393 -43.55862 39106 ft 498 kts 78°
2026-05-06 14:41 54.75413 -43.44080 39106 ft 497 kts 78°
2026-05-06 14:42 54.76418 -43.32339 39104 ft 497 kts 79°
2026-05-06 14:42 54.77416 -43.20541 39101 ft 495 kts 79°
2026-05-06 14:43 54.78401 -43.08759 39104 ft 498 kts 79°
2026-05-06 14:43 54.79381 -42.96897 39105 ft 498 kts 78°
2026-05-06 14:44 54.80337 -42.85166 39106 ft 496 kts 78°
2026-05-06 14:45 54.81762 -42.67421 39103 ft 498 kts 79°
2026-05-06 14:45 54.82696 -42.55605 39103 ft 497 kts 79°
2026-05-06 14:46 54.83615 -42.43822 39103 ft 496 kts 79°
2026-05-06 14:46 54.84524 -42.32024 39097 ft 495 kts 79°
2026-05-06 14:47 54.85424 -42.20188 39106 ft 496 kts 80°